User: anonymous
Location: Unspecified
(0.0000°N, 0.0000°E)
Time: 02:51:33
(UTC+02:00)
Language:

Cosmos 494 Rocket - Orbit

View from above orbital plane
View from above orbital plane
View from above satellite
View from above satellite

Ground track
Ground track

The orbit data is extracted from the following two-line orbital elements,

1 06061U 72043B   14258.40181201  .00000191  00000-0  68542-4 0  5217
2 06061 074.0568 237.4211 0021378 261.8922 207.1365 14.40175974213503
Epoch (UTC): 15 September 2014 09:38:36
Eccentricity: 0.0021378
inclination: 74.0568°
perigee height: 742 km
apogee height: 773 km
right ascension of ascending node: 237.4211°
argument of perigee: 261.8922°
revolutions per day: 14.40175974
mean anomaly at epoch: 207.1365°
orbit number at epoch: 21350

The dashed part of the orbit path shows where the satellite is in the earth's shadow,  

DLR